Dewpoint
-1 -2 -2 -1 -2 -3 -3 -3 -4 -4 -5 -8 -8 -9 -10 -10 -10 -10 -10 -11 -8 -7 -8 -9 -8 -9 -8 -9 -10 -10 -10 -8 -10 -8 -8 -9 -9 -10 -8 -10 -11 -7 -4 -4 -3 -3 -1 -10 -7 -7 -7 -8 -9 -9
-2 -2 -2 -3 -3 -3 -3 -3 -4 -5 -9 -7 -8 -9 -10 -11 -10 -8 -6 -9 -10 -5 -5 -9 -8 -8 -8 -9 -9 -9 -11 -11 -11 -7 -9 -8 -7 -8 -8 -7 -12 -9 -10 -10 -9 -8 -7 -6 -8 -9 -10 -11 -11 -12
-3 -4 -4 -4 -5 -6 -6 -7 -7 -6 -6 -8 -9 -11 -11 -11 -12 -8 -6 -6 -8 -5 -6 -6 -7 -9 -12 -12 -8 -8 -10 -8 -9 -9 -9 -10 -8 -12 -11 -13 -13 -13 -13 -8 -10 -13 -13 -12 -12 -12 -13 -13 -13 -11
-4 -5 -5 -5 -5 -7 -8 -8 -9 -10 -9 -7 -7 -6 -6 -8 -9 -8 -8 -8 -7 -4 -6 -9 -10 -12 -14 -14 -14 -14 -9 -9 -8 -8 -9 -8 -8 -12 -10 -11 -10 -13 -16 -14 -12 -13 -13 -13 -15 -16 -15 -15 -18 -18
-3 -4 -6 -7 -7 -6 -6 -6 -6 -6 -7 -8 -8 -9 -10 -10 -10 -9 -9 -9 -8 -4 -7 -9 -10 -13 -11 -11 -9 -10 -7 -7 -7 -7 -7 -7 -11 -12 -11 -11 -10 -14 -13 -12 -12 -17 -18 -18 -19 -20 -20 -19 -19 -18
-5 -6 -6 -7 -8 -8 -8 -6 -6 -8 -9 -12 -14 -14 -13 -12 -10 -9 -5 -9 -9 -7 -5 -7 -9 -8 -8 -10 -10 -9 -7 -7 -7 -8 -8 -9 -10 -10 -8 -10 -15 -16 -14 -13 -14 -15 -15 -15 -16 -16 -16 -17 -17 -16
-8 -8 -8 -8 -8 -8 -8 -9 -9 -11 -10 -11 -13 -12 -9 -11 -9 -5 -6 -7 -8 -8 -6 -8 -9 -9 -11 -11 -8 -8 -7 -7 -7 -8 -6 -8 -9 -11 -7 -6 -11 -12 -13 -14 -15 -14 -14 -14 -14 -15 -15 -15 -15 -14
-7 -8 -8 -9 -8 -7 -9 -11 -11 -12 -14 -9 -10 -10 -9 -9 -8 -6 -7 -7 -6 -7 -7 -7 -8 -9 -11 -9 -11 -8 -7 -6 -7 -8 -10 -10 -10 -9 -5 -10 -12 -13 -13 -13 -13 -13 -13 -14 -15 -15 -15 -14 -13 -13
-8 -10 -8 -9 -7 -9 -10 -11 -14 -9 -8 -8 -7 -7 -8 -7 -6 -5 -7 -7 -6 -6 -7 -7 -9 -10 -12 -10 -10 -8 -7 -7 -9 -8 -9 -9 -8 -5 -10 -12 -11 -11 -10 -8 -8 -9 -11 -12 -12 -12 -12 -12 -12 -12
-9 -10 -8 -8 -8 -10 -12 -15 -9 -10 -13 -13 -11 -7 -6 -6 -7 -8 -7 -6 -6 -6 -6 -7 -8 -8 -10 -11 -10 -9 -8 -8 -6 -9 -9 -5 -8 -11 -11 -9 -5 -4 -4 -4 -4 -4 -4 -8 -12 -12 -12 -12 -11 -10
-10 -9 -8 -8 -11 -12 -13 -10 -10 -11 -12 -13 -11 -7 -9 -8 -7 -7 -7 -7 -7 -8 -8 -9 -9 -8 -9 -8 -10 -11 -8 -7 -5 -7 -6 -5 -6 -4 -5 -5 -6 -6 -6 -5 -5 -5 -4 -5 -9 -11 -11 -11 -10 -9
-9 -9 -8 -10 -12 -14 -16 -14 -14 -13 -13 -13 -11 -9 -8 -7 -7 -7 -8 -9 -9 -9 -10 -8 -8 -7 -8 -7 -7 -8 -7 -6 -6 -6 -4 -5 -4 -7 -7 -6 -6 -6 -6 -6 -6 -6 -5 -4 -3 -7 -9 -8 -8 -8
-8 -11 -12 -14 -15 -16 -15 -14 -14 -14 -12 -12 -12 -8 -7 -8 -8 -8 -9 -8 -8 -9 -8 -6 -8 -8 -7 -6 -7 -7 -6 -6 -10 -4 -4 -4 -8 -8 -7 -6 -6 -7 -6 -6 -6 -5 -4 -4 -3 -3 -4 -5 -7 -6
-11 -11 -14 -15 -14 -13 -16 -12 -13 -10 -10 -9 -7 -8 -8 -8 -8 -9 -10 -10 -10 -10 -9 -9 -9 -8 -8 -7 -9 -6 -9 -5 -4 -2 -5 -7 -8 -8 -8 -7 -7 -7 -6 -7 -5 -4 -4 -4 -3 -4 -5 -7 -3 -2
-10 -12 -13 -10 -10 -10 -9 -9 -8 -7 -9 -8 -7 -8 -8 -9 -9 -10 -10 -11 -10 -12 -8 -8 -8 -8 -8 -7 -7 -7 -5 -4 -4 -5 -7 -8 -8 -8 -7 -7 -7 -7 -7 -7 -5 -4 -4 -5 -5 -4 -3 -1 -2 -2
-14 -14 -11 -11 -12 -10 -10 -8 -7 -7 -7 -7 -7 -7 -8 -9 -8 -9 -10 -9 -11 -9 -7 -7 -8 -8 -8 -7 -5 -6 -5 -4 -6 -7 -8 -8 -8 -7 -8 -7 -7 -7 -7 -7 -5 -4 -3 -2 -1 -3 -4 -4 -4 -4
-10 -9 -10 -10 -10 -9 -8 -8 -7 -7 -6 -7 -7 -7 -7 -8 -8 -9 -10 -11 -11 -7 -10 -8 -7 -8 -7 -7 -7 -6 -5 -7 -8 -8 -8 -8 -8 -8 -8 -7 -7 -7 -7 -7 -6 -5 -4 -3 -2 -2 -4 -3 -3 -3
-8 -11 -9 -10 -10 -7 -7 -6 -7 -7 -7 -7 -7 -8 -8 -8 -8 -8 -10 -10 -10 -7 -7 -8 -7 -7 -8 -9 -10 -7 -8 -8 -9 -9 -9 -9 -9 -8 -7 -7 -7 -8 -7 -7 -7 -6 -5 -4 -4 -4 -3 -3 -3 -3
-9 -12 -11 -11 -10 -7 -7 -7 -7 -7 -7 -8 -9 -9 -9 -9 -10 -10 -10 -11 -10 -8 -9 -7 -8 -8 -10 -10 -8 -9 -9 -9 -9 -9 -9 -10 -9 -8 -7 -7 -8 -8 -8 -7 -7 -7 -6 -6 -5 -5 -5 -4 -4 -4
-9 -10 -11 -9 -8 -7 -7 -8 -8 -8 -9 -9 -10 -10 -10 -8 -9 -10 -9 -9 -9 -8 -8 -8 -10 -11 -9 -9 -10 -10 -10 -10 -10 -10 -10 -10 -9 -8 -7 -8 -8 -8 -8 -8 -8 -7 -7 -7 -6 -6 -6 -5 -4 -5
-8 -10 -11 -8 -7 -7 -9 -10 -10 -10 -10 -10 -10 -10 -9 -10 -9 -9 -9 -9 -8 -8 -8 -9 -9 -9 -11 -12 -11 -10 -10 -10 -10 -10 -10 -9 -9 -8 -8 -8 -8 -8 -8 -8 -8 -8 -7 -7 -7 -7 -6 -5 -6 -6
-11 -13 -7 -7 -7 -7 -8 -9 -9 -10 -11 -11 -11 -11 -10 -9 -9 -9 -10 -10 -9 -9 -10 -10 -11 -12 -12 -11 -10 -10 -10 -10 -10 -10 -10 -9 -9 -9 -9 -8 -9 -9 -8 -8 -8 -7 -7 -7 -7 -6 -6 -6 -5 -5
-8 -7 -7 -7 -8 -8 -10 -11 -10 -11 -10 -11 -12 -11 -10 -10 -10 -11 -10 -10 -10 -11 -11 -12 -12 -12 -11 -10 -10 -10 -10 -10 -10 -10 -10 -10 -9 -9 -9 -9 -9 -9 -9 -9 -8 -8 -8 -7 -6 -6 -6 -6 -6 -6
-8 -7 -7 -8 -8 -10 -11 -13 -13 -13 -13 -12 -12 -11 -11 -10 -11 -10 -10 -10 -11 -12 -12 -12 -12 -12 -11 -11 -11 -11 -11 -10 -10 -10 -10 -10 -10 -9 -9 -9 -9 -9 -9 -9 -8 -8 -7 -7 -6 -6 -6 -6 -6 -6
-7 -9 -9 -11 -10 -11 -13 -13 -14 -13 -13 -14 -13 -12 -11 -11 -10 -10 -11 -11 -12 -12 -13 -13 -12 -12 -12 -12 -11 -11 -11 -11 -10 -10 -10 -10 -10 -10 -10 -9 -9 -9 -9 -8 -7 -7 -7 -6 -6 -6 -7 -12 -18 -20
-9 -11 -12 -11 -13 -13 -13 -12 -13 -13 -14 -14 -13 -12 -11 -11 -11 -10 -12 -12 -13 -13 -13 -13 -12 -12 -12 -12 -12 -11 -11 -10 -10 -10 -10 -10 -9 -9 -9 -9 -9 -9 -8 -7 -6 -6 -6 -9 -15 -19 -20 -20 -21 -21
-9 -12 -12 -13 -13 -14 -14 -14 -14 -14 -14 -13 -13 -12 -12 -11 -10 -12 -13 -13 -13 -13 -12 -12 -12 -12 -12 -11 -11 -11 -11 -10 -10 -10 -10 -9 -9 -9 -8 -8 -8 -8 -7 -6 -9 -16 -21 -21 -21 -21 -20 -19 -18 -18
-12 -12 -13 -13 -13 -14 -14 -14 -14 -14 -14 -13 -13 -12 -12 -11 -12 -14 -13 -13 -13 -12 -12 -12 -12 -12 -11 -11 -10 -10 -10 -10 -11 -10 -9 -9 -8 -9 -9 -11 -14 -15 -19 -20 -21 -22 -21 -21 -21 -19 -19 -19 -17 -17
-13 -13 -14 -15 -14 -14 -14 -14 -14 -14 -14 -14 -13 -13 -13 -14 -14 -13 -13 -13 -12 -12 -12 -11 -11 -11 -11 -10 -10 -10 -9 -9 -9 -9 -15 -17 -18 -19 -19 -20 -20 -20 -20 -20 -19 -20 -20 -21 -20 -20 -20 -19 -18 -18
-14 -13 -14 -15 -16 -14 -14 -14 -14 -14 -14 -14 -14 -14 -14 -14 -13 -13 -13 -12 -12 -12 -12 -12 -12 -11 -10 -10 -10 -10 -9 -9 -14 -17 -20 -21 -21 -20 -20 -20 -21 -21 -20 -21 -21 -20 -20 -21 -21 -21 -21 -20 -20 -21
-14 -14 -14 -14 -14 -14 -14 -14 -14 -14 -14 -14 -14 -14 -14 -13 -13 -13 -13 -12 -12 -12 -12 -11 -11 -11 -11 -10 -10 -9 -9 -10 -11 -18 -21 -21 -21 -21 -21 -21 -21 -22 -22 -22 -22 -22 -22 -22 -23 -23 -23 -23 -22 -22
-14 -14 -14 -16 -15 -15 -14 -14 -14 -14 -14 -14 -14 -14 -13 -13 -13 -13 -13 -12 -12 -12 -12 -11 -11 -11 -11 -10 -10 -9 -16 -19 -20 -20 -21 -21 -21 -22 -22 -22 -22 -22 -22 -22 -22 -21 -21 -21 -21 -21 -21 -21 -21 -21
-15 -15 -15 -15 -15 -15 -15 -14 -15 -15 -14 -14 -14 -14 -14 -14 -14 -13 -13 -12 -12 -12 -12 -12 -12 -12 -11 -11 -10 -15 -18 -19 -19 -19 -20 -20 -21 -21 -21 -21 -21 -20 -20 -20 -19 -19 -19 -19 -18 -18 -18 -19 -19 -20
Wind_Speed
29 28 27 26 24 21 18 15 14 11 8 6 6 5 3 3 2 2 2 2 2 2 2 5 5 7 5 5 4 3 5 4 4 4 6 8 9 10 10 16 15 10 7 8 9 14 15 9 4 6 5 2 5 9
27 24 24 23 21 20 18 16 13 10 9 10 7 5 4 3 2 1 1 2 3 2 4 6 7 9 9 7 8 5 8 4 3 3 2 3 6 4 9 12 13 14 13 11 9 4 8 4 3 3 6 11 12 15
23 21 21 20 20 18 17 15 13 13 11 8 7 5 4 4 2 3 2 2 1 3 7 6 6 9 6 12 12 7 11 9 7 10 10 7 11 8 11 11 16 18 20 10 13 14 20 23 16 17 16 19 20 12
22 21 20 18 17 17 16 15 13 11 9 9 7 6 5 4 3 2 3 3 4 1 4 3 8 14 8 9 13 15 18 12 9 9 13 7 9 11 12 15 16 16 20 19 21 20 27 28 27 31 30 21 19 24
24 20 17 17 17 16 14 13 11 11 9 7 7 6 6 6 3 3 6 6 6 4 3 9 17 15 13 9 11 17 18 17 17 14 6 9 19 14 16 15 14 21 21 15 17 24 28 31 29 28 32 32 31 27
19 17 16 14 14 14 14 13 12 10 8 6 3 3 4 4 3 2 1 2 5 11 2 3 8 8 12 12 11 12 14 14 18 12 10 16 27 20 9 14 24 28 37 44 33 35 40 39 40 39 37 36 33 30
17 16 16 16 16 14 13 12 10 8 6 4 4 4 4 5 5 3 0 2 2 3 1 4 5 3 9 6 3 5 8 10 11 15 12 23 29 25 13 17 42 41 41 41 38 37 42 40 39 40 36 32 29 27
17 17 16 15 15 14 11 9 8 6 5 4 3 4 6 6 5 2 6 6 6 2 3 2 3 5 4 3 4 3 6 7 9 10 16 15 20 16 8 25 34 34 33 36 38 41 45 45 45 40 39 35 30 29
16 17 16 14 13 11 10 8 8 7 6 6 5 5 5 1 1 3 2 3 6 6 3 4 3 6 3 5 8 6 5 4 8 5 7 6 6 7 16 23 28 32 33 39 42 41 36 37 42 42 40 35 32 31
16 16 15 15 13 11 9 9 10 7 5 6 6 3 2 3 3 1 2 1 2 3 6 4 2 4 6 8 4 5 5 4 3 5 4 3 7 25 28 31 37 35 33 35 33 31 38 41 36 35 35 36 32 29
16 15 15 13 11 10 11 11 8 6 4 4 4 2 4 3 1 1 1 2 1 3 4 4 5 6 5 5 7 5 3 3 3 2 3 3 3 1 17 26 31 34 33 33 32 32 29 34 33 31 29 29 27 26
15 15 14 12 10 10 10 10 7 5 4 4 4 4 3 1 1 2 1 0 3 2 2 3 4 6 7 5 5 5 3 3 5 2 3 3 3 25 37 36 35 39 35 36 31 28 26 28 32 33 27 21 20 20
16 14 13 11 9 8 8 8 7 4 3 2 2 2 1 1 2 3 4 3 2 3 3 3 5 4 4 4 6 3 4 5 3 4 3 2 17 34 38 37 36 41 39 37 32 22 21 25 23 23 24 24 20 17
13 11 10 9 8 6 6 9 7 6 2 1 2 1 2 3 4 4 3 1 1 3 4 7 8 4 4 3 3 4 4 4 4 2 4 8 30 40 39 38 36 39 38 37 25 17 4 11 13 14 18 16 16 16
10 9 9 8 7 6 6 6 8 7 2 2 2 3 5 6 5 4 7 6 5 6 5 5 6 5 4 4 3 5 4 5 3 4 7 24 37 40 40 39 39 37 36 31 21 11 4 10 12 12 12 13 15 15
9 7 7 7 6 5 6 7 7 5 2 2 4 3 4 2 5 5 8 9 7 4 2 2 3 3 4 3 4 5 4 3 4 7 24 33 39 39 40 39 36 36 30 23 15 5 3 5 10 12 12 13 14 16
7 5 5 6 7 7 5 6 3 4 4 4 6 9 10 8 7 4 4 5 5 2 2 2 3 4 4 4 3 2 3 6 18 26 32 35 36 39 40 38 33 30 24 18 10 3 3 8 9 10 13 14 15 16
5 4 8 7 8 5 4 6 5 4 5 8 5 5 7 8 7 7 8 8 7 4 3 4 3 3 4 4 5 4 10 23 27 33 34 36 38 36 34 32 26 23 18 12 6 4 6 9 10 13 16 18 20 22
5 5 7 8 7 4 3 4 4 3 7 5 8 11 10 11 15 15 14 12 11 8 4 3 5 4 5 4 8 18 25 27 31 35 36 33 29 31 27 26 20 16 13 9 4 5 8 12 18 21 22 24 27 27
6 6 6 9 8 6 4 3 5 4 3 3 5 6 6 6 8 9 8 8 9 5 7 4 4 7 7 12 21 27 30 30 30 30 32 30 30 28 23 20 16 10 7 8 9 11 15 18 17 19 23 26 29 28
10 9 8 6 11 5 3 3 3 3 4 4 5 5 5 6 6 5 5 8 8 4 4 5 7 12 18 25 26 26 26 25 26 28 31 32 29 20 17 15 11 7 3 4 9 13 16 19 19 20 23 25 28 30
10 10 5 9 3 4 3 4 2 3 3 4 4 4 5 3 3 2 3 4 3 3 4 6 13 20 25 25 23 20 20 22 24 22 20 19 19 15 11 10 6 3 5 8 12 15 17 18 22 26 30 33 33 34
5 9 5 4 3 3 2 2 1 2 2 2 4 3 3 2 2 2 3 3 3 4 8 12 16 18 19 18 16 16 17 19 20 17 19 14 11 8 7 4 1 7 12 14 16 20 23 25 28 32 34 36 37 39
7 5 3 3 4 1 1 1 2 2 3 2 2 3 1 2 3 2 2 1 3 8 10 13 16 17 16 15 17 19 19 19 15 13 13 10 7 5 3 3 5 9 13 17 21 26 29 32 34 36 37 38 38 38
4 3 2 1 3 2 2 1 1 1 2 1 2 2 1 3 2 1 1 1 6 9 13 15 14 14 16 18 20 20 19 18 13 12 9 7 6 6 7 8 11 13 15 22 27 30 33 34 34 35 34 33 34 34
2 3 2 4 3 3 4 2 3 2 1 2 3 3 3 2 2 1 1 5 7 12 15 17 18 18 17 16 19 19 21 17 8 7 9 7 4 7 11 15 17 19 21 26 30 32 33 32 32 32 33 31 30 30
3 4 4 4 2 3 2 1 1 1 2 2 1 2 2 2 2 1 5 7 13 15 15 15 14 15 17 16 13 10 13 12 11 12 12 11 11 13 16 20 23 24 25 26 26 27 29 29 29 29 30 30 29 28
2 5 3 6 4 3 2 1 2 3 2 1 1 2 1 1 2 5 6 12 13 13 13 12 12 13 12 10 9 8 6 6 9 15 17 19 20 22 23 23 23 21 22 23 25 26 26 28 29 30 29 30 28 26
2 4 5 3 2 3 4 3 2 2 2 1 1 1 2 3 5 7 9 10 11 12 13 12 10 9 8 6 6 6 5 5 11 18 18 21 21 22 22 23 22 23 24 25 25 25 25 26 27 28 28 28 27 25
3 6 2 3 3 3 3 4 2 2 2 3 3 3 4 4 4 6 8 9 10 12 13 13 13 11 9 8 8 8 10 14 14 15 17 19 21 21 21 23 23 23 24 26 27 28 26 27 27 26 26 25 23 23
4 5 2 2 1 2 3 4 2 2 2 2 4 4 4 3 4 3 6 8 9 12 12 12 11 11 7 6 8 11 14 15 13 11 17 20 22 20 20 21 22 23 23 24 25 25 26 26 25 25 24 23 22 20
3 3 2 1 1 2 3 3 2 2 2 2 2 2 2 2 2 2 4 7 8 9 11 12 12 11 8 7 8 12 10 10 15 18 20 22 23 23 22 22 22 22 23 23 23 23 22 22 22 21 20 20 19 17
2 2 2 1 2 2 2 2 1 2 2 2 2 2 2 2 1 2 4 5 7 9 10 10 11 10 9 11 15 16 18 19 19 19 20 21 21 22 22 23 21 20 20 21 21 20 19 19 19 18 17 16 15 14
Wind_Direction
165 165 169 170 172 173 177 178 177 177 187 199 187 185 204 239 209 196 192 213 188 263 256 236 239 231 222 233 265 45 276 206 245 256 259 256 255 248 254 253 262 226 225 211 230 245 253 194 124 222 60 30 354 340
160 168 173 176 179 181 183 186 188 199 195 185 194 209 219 237 220 187 231 225 234 282 276 268 248 221 223 245 262 231 278 283 295 291 294 304 273 265 273 268 252 251 258 268 242 227 90 31 58 40 320 313 311 318
179 176 172 175 180 187 190 189 178 178 190 194 199 205 206 228 251 215 233 249 280 301 290 264 284 246 245 246 222 242 249 255 251 274 293 279 262 279 268 264 266 265 272 264 274 264 274 277 299 298 293 290 299 305
153 153 154 156 160 167 173 177 182 183 180 176 184 194 197 232 251 248 252 252 237 260 283 288 280 258 252 260 244 244 249 264 266 276 271 271 273 269 267 277 271 278 286 270 270 271 283 284 282 286 291 295 306 305
159 160 163 165 169 170 168 171 176 179 186 200 217 229 235 242 252 244 254 251 231 229 299 297 294 282 269 283 258 242 241 248 255 258 246 252 260 265 256 262 259 255 255 256 262 262 261 263 269 278 288 294 300 295
171 169 168 169 169 171 175 178 184 194 200 205 199 204 221 223 202 211 238 345 253 234 272 275 288 287 300 290 254 237 236 244 238 244 249 249 255 263 268 265 268 264 250 250 263 265 266 268 271 273 276 275 279 283
176 167 161 161 162 162 166 172 177 180 180 190 196 196 203 178 183 178 93 163 49 27 257 290 273 279 320 308 265 242 230 235 240 251 241 253 256 257 261 267 259 260 263 265 266 265 262 257 260 265 268 273 275 276
157 160 160 161 162 163 163 165 167 175 172 176 167 185 198 205 191 234 258 263 276 274 243 268 274 290 311 304 293 258 250 236 232 242 255 251 259 247 250 254 272 278 277 269 264 260 262 266 267 265 266 268 270 270
158 158 159 160 159 162 166 167 159 151 158 167 159 147 153 179 136 225 248 269 235 228 260 225 274 309 346 290 291 269 236 253 250 239 237 254 236 230 249 274 287 290 293 289 284 280 273 253 256 258 261 264 263 262
154 159 160 156 159 165 164 158 157 157 152 158 157 138 151 191 149 303 7 191 227 227 225 251 273 270 293 298 280 296 233 248 263 226 220 227 248 254 273 285 290 295 297 289 288 276 257 255 251 253 253 256 257 256
153 153 154 156 158 158 156 160 164 159 149 155 159 140 154 151 120 150 192 234 279 254 228 248 248 275 269 270 299 267 278 270 261 213 228 236 229 153 322 316 313 308 308 301 294 281 272 250 245 246 247 248 251 251
150 151 153 156 159 165 168 170 169 167 156 155 138 133 147 145 126 225 169 223 225 261 215 247 276 255 281 258 264 251 253 242 253 228 240 242 31 347 337 323 319 322 317 314 307 291 268 249 240 239 239 239 245 249
150 151 152 153 158 168 175 182 184 176 149 151 164 129 128 175 182 215 200 206 230 211 227 251 294 286 274 251 260 263 251 237 265 229 246 58 348 334 331 327 321 326 324 327 327 313 276 239 227 225 228 231 232 245
146 148 149 154 157 157 175 179 182 175 156 126 141 189 229 181 238 207 236 223 151 230 280 296 284 251 259 259 265 254 260 260 257 282 358 345 335 328 326 325 324 324 329 334 341 349 349 182 188 194 201 210 217 230
150 154 159 158 154 159 171 175 177 187 173 150 147 234 222 240 254 248 245 260 265 286 290 289 266 241 258 260 244 270 246 247 8 352 324 327 325 324 324 325 326 326 331 337 345 2 89 146 163 166 191 213 219 215
162 163 174 179 189 176 167 173 178 182 230 187 230 255 227 257 234 243 248 261 279 262 267 250 267 264 248 245 231 232 261 322 340 336 321 324 322 321 321 324 326 328 334 335 340 344 174 181 157 142 145 149 154 159
178 181 187 184 179 167 161 187 198 205 209 217 240 232 244 274 265 260 241 257 236 193 234 257 251 242 303 248 260 266 294 325 320 319 320 318 317 319 327 328 326 333 337 342 344 349 143 142 142 148 139 137 147 149
190 171 176 183 182 201 257 207 197 221 239 231 235 250 227 244 260 266 267 240 228 208 187 224 287 245 251 253 267 1 319 315 316 315 312 314 321 326 329 326 330 335 338 347 6 61 112 133 144 136 137 138 139 138
201 199 198 207 204 200 199 210 212 251 238 248 255 263 264 265 268 265 262 258 240 224 239 226 245 242 245 299 320 318 315 316 311 312 312 318 317 327 328 330 337 344 354 360 25 93 118 133 133 135 138 142 138 139
192 203 203 212 219 208 207 211 212 252 265 260 261 266 257 254 260 267 260 249 229 208 209 227 235 278 280 302 310 308 310 313 313 309 310 317 327 331 327 332 339 343 17 50 72 103 116 121 129 136 140 139 138 137
210 235 227 225 217 176 198 204 223 237 272 267 273 281 270 268 264 258 259 246 227 225 245 247 266 280 295 305 311 314 312 317 314 309 305 311 322 328 322 332 337 333 1 85 107 122 127 124 131 137 137 132 132 131
227 230 207 217 224 182 245 222 231 277 269 272 291 259 269 272 258 235 243 221 241 241 247 278 296 308 308 312 317 317 318 315 317 323 325 323 324 335 338 337 342 45 103 120 127 124 121 125 129 129 127 126 128 128
189 194 189 186 187 215 255 241 255 261 266 283 304 266 236 253 244 261 246 232 246 263 298 303 307 309 310 319 324 328 331 329 332 338 336 334 327 329 334 337 98 125 126 127 132 129 127 131 130 128 127 127 126 124
180 184 185 191 195 178 208 232 248 282 289 270 264 274 256 299 302 244 257 223 253 325 321 320 324 327 332 338 344 346 346 342 343 349 347 353 353 13 29 86 122 135 135 134 131 128 129 128 128 127 125 122 120 117
185 205 190 184 176 147 189 215 260 249 262 246 283 278 350 321 270 265 292 317 330 332 331 335 336 337 334 338 346 351 357 352 350 351 0 21 34 73 95 111 118 121 131 133 129 129 127 127 125 121 118 120 122 121
182 199 182 199 178 201 189 218 204 230 264 276 243 291 321 301 272 284 6 320 324 334 337 338 336 335 340 346 344 353 355 1 358 15 38 49 86 113 113 115 118 118 126 128 128 126 124 124 125 126 123 122 121 120
198 203 191 186 174 167 166 164 156 217 240 239 304 321 320 271 283 38 317 326 333 337 338 335 332 332 332 342 352 359 3 19 47 60 64 77 93 106 115 119 120 120 124 124 126 126 125 125 125 123 121 120 118 117
177 174 187 178 182 192 166 184 190 214 234 240 281 254 255 292 332 327 321 326 333 339 342 340 338 338 339 347 356 3 12 51 74 87 88 90 92 99 102 105 108 115 122 124 124 124 125 124 122 120 119 116 114 113
139 165 158 134 161 204 219 210 214 185 202 204 270 287 293 273 304 323 335 341 347 349 353 359 4 2 360 4 12 24 61 84 114 101 102 101 105 103 107 110 114 118 119 118 118 118 118 118 118 119 117 115 113 112
173 168 168 175 171 216 198 194 197 223 239 239 254 283 288 289 303 323 342 350 358 5 4 4 7 13 26 41 58 81 96 119 109 110 114 113 112 115 120 120 121 122 124 124 122 121 119 118 116 114 111 109 108 106
159 177 168 184 224 223 209 199 213 247 260 256 244 250 271 295 302 307 348 358 4 9 12 18 20 25 39 63 87 110 112 114 119 110 120 120 118 117 117 117 118 120 121 120 118 117 116 114 111 109 107 105 103 100
163 181 184 175 227 205 170 186 211 247 255 245 258 264 284 290 283 301 348 2 9 16 22 24 29 34 44 73 105 124 118 123 130 133 129 125 123 122 121 120 120 120 119 117 115 114 113 111 109 106 103 101 98 95
152 172 172 159 150 185 205 200 232 284 252 254 255 258 252 258 255 291 346 0 13 22 31 38 42 49 67 98 122 123 124 124 125 127 126 125 123 123 124 121 121 122 122 119 116 113 111 109 107 104 101 98 95 92
Height
1442 1449 1454 1458 1462 1467 1473 1478 1480 1481 1486 1489 1490 1491 1492 1494 1493 1494 1495 1497 1500 1498 1497 1497 1498 1500 1500 1499 1499 1500 1501 1499 1496 1492 1484 1479 1472 1471 1471 1470 1465 1467 1467 1465 1469 1467 1463 1450 1455 1454 1456 1457 1458 1458
1443 1449 1455 1459 1464 1468 1472 1476 1478 1481 1484 1489 1489 1490 1491 1494 1493 1492 1496 1496 1498 1498 1498 1495 1496 1499 1498 1497 1500 1499 1499 1498 1496 1491 1487 1484 1479 1476 1476 1471 1466 1467 1464 1457 1452 1446 1450 1452 1453 1454 1456 1457 1457 1456
1446 1451 1456 1461 1463 1468 1470 1475 1477 1481 1486 1486 1489 1489 1491 1491 1492 1495 1495 1497 1496 1495 1495 1495 1492 1494 1493 1492 1495 1499 1497 1498 1496 1496 1493 1489 1486 1483 1478 1469 1469 1466 1464 1462 1458 1450 1448 1449 1451 1451 1453 1453 1453 1453
1449 1453 1457 1461 1464 1469 1472 1474 1478 1482 1484 1486 1487 1489 1489 1490 1493 1494 1495 1495 1496 1498 1495 1491 1491 1489 1490 1490 1491 1493 1495 1495 1495 1495 1493 1489 1486 1482 1476 1473 1468 1470 1466 1458 1450 1453 1451 1448 1449 1446 1445 1448 1448 1448
1451 1454 1458 1461 1465 1469 1472 1476 1479 1481 1484 1486 1487 1486 1488 1490 1490 1493 1495 1492 1495 1498 1493 1492 1489 1485 1484 1485 1485 1488 1489 1491 1491 1491 1489 1485 1482 1479 1470 1467 1457 1465 1460 1456 1442 1452 1446 1442 1444 1445 1443 1441 1441 1442
1452 1455 1458 1462 1466 1469 1472 1476 1479 1483 1483 1484 1483 1486 1486 1489 1492 1492 1493 1492 1492 1492 1495 1492 1486 1482 1481 1481 1483 1483 1484 1485 1485 1483 1481 1475 1474 1474 1462 1448 1450 1451 1448 1443 1437 1444 1439 1438 1438 1438 1437 1436 1437 1437
1453 1456 1459 1463 1466 1469 1473 1476 1479 1480 1481 1483 1484 1485 1488 1489 1490 1491 1492 1492 1492 1493 1494 1491 1485 1482 1480 1479 1479 1479 1479 1479 1480 1479 1473 1470 1464 1466 1458 1448 1428 1436 1437 1435 1435 1434 1426 1430 1425 1427 1427 1428 1429 1429
1454 1457 1460 1464 1467 1470 1473 1476 1477 1480 1481 1482 1484 1485 1487 1488 1489 1490 1489 1490 1492 1494 1493 1492 1486 1483 1480 1480 1479 1476 1476 1475 1473 1468 1461 1457 1455 1456 1444 1425 1426 1427 1425 1422 1421 1420 1416 1417 1416 1417 1417 1419 1420 1421
1455 1458 1462 1465 1467 1470 1474 1476 1478 1480 1481 1483 1484 1485 1487 1487 1488 1489 1489 1490 1490 1495 1491 1489 1485 1481 1480 1479 1477 1474 1472 1468 1462 1457 1454 1452 1445 1441 1424 1424 1422 1419 1418 1414 1410 1407 1404 1402 1401 1402 1406 1408 1409 1410
1456 1459 1463 1466 1469 1472 1474 1477 1479 1481 1482 1483 1485 1486 1487 1487 1487 1489 1489 1490 1490 1488 1488 1486 1485 1483 1483 1477 1473 1471 1466 1462 1453 1444 1446 1443 1433 1428 1427 1425 1419 1411 1406 1402 1395 1389 1387 1388 1388 1391 1394 1395 1398 1400
1458 1461 1464 1467 1470 1473 1475 1478 1480 1481 1482 1483 1484 1486 1486 1487 1488 1488 1489 1490 1490 1487 1485 1483 1483 1482 1479 1477 1472 1468 1463 1456 1449 1442 1442 1431 1422 1425 1424 1417 1410 1403 1395 1389 1383 1377 1374 1374 1377 1379 1383 1386 1388 1390
1460 1463 1466 1469 1472 1474 1476 1478 1480 1481 1482 1483 1484 1485 1486 1487 1488 1490 1489 1490 1489 1483 1482 1482 1481 1480 1477 1474 1471 1465 1460 1456 1445 1441 1435 1421 1419 1418 1412 1406 1399 1391 1384 1376 1369 1363 1361 1361 1364 1369 1374 1378 1381 1383
1463 1465 1467 1470 1472 1474 1476 1478 1479 1481 1482 1483 1484 1485 1486 1488 1488 1486 1486 1483 1484 1481 1480 1480 1480 1478 1475 1473 1468 1463 1455 1445 1438 1431 1418 1417 1417 1414 1407 1399 1392 1383 1375 1367 1358 1352 1347 1348 1355 1361 1366 1371 1375 1377
1465 1467 1469 1471 1473 1475 1476 1477 1479 1481 1482 1483 1484 1485 1484 1484 1483 1479 1478 1477 1479 1479 1479 1479 1478 1476 1472 1470 1464 1460 1449 1441 1427 1415 1417 1417 1416 1410 1404 1396 1388 1378 1370 1362 1355 1349 1344 1346 1351 1356 1362 1367 1369 1372
1467 1469 1471 1472 1474 1475 1476 1478 1480 1481 1482 1483 1483 1482 1481 1478 1478 1478 1477 1477 1477 1477 1477 1477 1476 1475 1470 1466 1462 1454 1443 1430 1424 1424 1425 1423 1417 1409 1400 1392 1385 1377 1369 1361 1356 1353 1352 1352 1354 1357 1361 1363 1365 1368
1468 1470 1471 1472 1474 1475 1476 1478 1479 1481 1481 1482 1481 1479 1477 1477 1475 1475 1474 1475 1475 1475 1476 1476 1474 1470 1464 1460 1452 1445 1435 1425 1428 1431 1428 1421 1414 1406 1398 1391 1384 1377 1370 1364 1359 1357 1356 1356 1356 1357 1359 1362 1365 1367
1468 1469 1471 1472 1473 1475 1477 1478 1479 1480 1480 1479 1476 1474 1475 1474 1472 1472 1472 1473 1473 1474 1474 1474 1472 1464 1462 1455 1445 1437 1435 1437 1434 1429 1425 1420 1412 1403 1395 1388 1382 1375 1370 1366 1362 1360 1358 1356 1357 1359 1361 1364 1366 1369
1468 1469 1470 1471 1473 1474 1475 1476 1477 1477 1476 1473 1473 1471 1471 1471 1470 1470 1469 1470 1471 1472 1472 1471 1468 1463 1457 1448 1441 1441 1441 1438 1434 1428 1421 1414 1407 1401 1395 1389 1382 1376 1371 1368 1366 1364 1362 1360 1361 1362 1364 1366 1369 1372
1467 1468 1469 1471 1472 1474 1475 1476 1476 1474 1471 1470 1469 1468 1468 1467 1465 1465 1465 1466 1467 1468 1469 1466 1463 1456 1451 1447 1446 1444 1440 1436 1428 1420 1415 1410 1406 1399 1393 1388 1382 1378 1374 1371 1369 1367 1366 1365 1366 1368 1369 1372 1373 1377
1466 1467 1469 1470 1472 1473 1473 1473 1474 1472 1470 1468 1466 1465 1464 1464 1462 1461 1462 1462 1463 1464 1462 1459 1454 1451 1450 1448 1446 1442 1437 1432 1426 1418 1410 1406 1402 1397 1392 1387 1383 1380 1378 1375 1373 1372 1371 1371 1373 1374 1375 1376 1378 1381
1465 1466 1467 1468 1469 1469 1470 1470 1470 1470 1468 1466 1464 1464 1462 1460 1459 1459 1458 1458 1459 1456 1454 1452 1451 1449 1448 1445 1442 1437 1432 1429 1424 1419 1411 1403 1399 1395 1391 1388 1385 1383 1381 1379 1378 1378 1377 1377 1379 1380 1381 1382 1385 1388
1463 1465 1467 1467 1468 1468 1469 1468 1469 1468 1468 1465 1464 1462 1460 1458 1457 1457 1456 1456 1454 1452 1451 1450 1448 1446 1442 1439 1436 1433 1429 1424 1419 1413 1408 1403 1398 1395 1392 1389 1387 1385 1384 1383 1383 1382 1383 1383 1385 1386 1387 1390 1394 1397
1463 1465 1466 1466 1467 1467 1469 1468 1468 1467 1466 1464 1462 1461 1458 1457 1456 1455 1454 1452 1451 1450 1449 1448 1445 1443 1439 1436 1432 1429 1425 1420 1415 1410 1406 1402 1399 1396 1393 1391 1389 1388 1387 1387 1387 1387 1387 1390 1392 1393 1396 1399 1402 1405
1463 1464 1464 1464 1465 1467 1467 1467 1467 1466 1465 1464 1462 1458 1457 1455 1455 1453 1451 1450 1450 1449 1447 1445 1442 1438 1435 1433 1430 1425 1421 1417 1413 1409 1406 1402 1399 1397 1395 1394 1393 1392 1392 1392 1393 1394 1396 1398 1401 1404 1406 1409 1412 1415
1463 1464 1465 1464 1464 1466 1467 1466 1466 1466 1464 1464 1462 1457 1456 1455 1453 1451 1450 1450 1449 1448 1446 1443 1440 1437 1434 1430 1427 1423 1420 1415 1412 1410 1407 1404 1402 1400 1399 1397 1397 1398 1399 1400 1401 1403 1405 1409 1411 1414 1416 1419 1421 1424
1460 1462 1463 1461 1463 1464 1463 1464 1464 1464 1464 1463 1460 1458 1456 1455 1453 1449 1451 1451 1449 1447 1444 1441 1438 1435 1433 1431 1426 1423 1419 1415 1413 1411 1409 1406 1405 1404 1403 1403 1404 1406 1408 1409 1410 1412 1415 1418 1420 1423 1425 1429 1432 1433
1458 1459 1459 1460 1461 1461 1462 1462 1463 1463 1463 1462 1459 1458 1457 1454 1451 1453 1452 1450 1448 1446 1443 1440 1438 1435 1432 1429 1427 1425 1422 1419 1416 1414 1412 1410 1409 1409 1410 1410 1411 1413 1416 1419 1421 1423 1425 1427 1430 1432 1434 1437 1440 1442
1455 1456 1458 1459 1459 1460 1461 1461 1461 1461 1460 1460 1460 1458 1457 1455 1454 1454 1452 1450 1447 1445 1442 1439 1437 1434 1431 1429 1427 1426 1424 1423 1422 1420 1419 1417 1417 1417 1418 1420 1421 1424 1426 1428 1430 1432 1435 1436 1438 1440 1443 1445 1447 1451
1455 1455 1457 1458 1458 1459 1459 1459 1459 1459 1459 1459 1459 1457 1457 1455 1454 1453 1451 1449 1447 1444 1441 1439 1436 1434 1432 1430 1428 1427 1426 1426 1426 1425 1426 1425 1426 1428 1428 1430 1431 1433 1435 1437 1440 1442 1444 1445 1447 1449 1451 1452 1455 1457
1454 1455 1456 1456 1457 1456 1456 1457 1457 1457 1458 1458 1458 1458 1456 1454 1453 1452 1451 1449 1447 1445 1442 1439 1437 1434 1432 1431 1430 1430 1430 1431 1432 1432 1432 1433 1434 1436 1437 1438 1440 1441 1444 1445 1446 1449 1451 1453 1455 1457 1459 1460 1463 1464
1453 1454 1455 1455 1455 1455 1455 1456 1456 1457 1457 1456 1456 1456 1455 1454 1453 1452 1451 1450 1448 1446 1443 1441 1438 1436 1435 1434 1433 1434 1435 1436 1437 1437 1439 1440 1441 1443 1445 1447 1449 1451 1453 1454 1456 1457 1459 1461 1463 1464 1466 1467 1469 1470
1453 1454 1455 1455 1455 1455 1455 1456 1456 1456 1455 1455 1455 1454 1454 1453 1453 1452 1451 1450 1449 1447 1445 1443 1440 1438 1437 1437 1437 1438 1439 1440 1441 1443 1445 1446 1447 1450 1452 1454 1457 1459 1461 1462 1464 1465 1467 1468 1470 1471 1472 1473 1475 1476
1454 1454 1454 1454 1454 1455 1455 1456 1455 1454 1454 1453 1453 1453 1453 1453 1453 1453 1452 1451 1450 1448 1446 1445 1443 1442 1441 1441 1441 1443 1444 1445 1447 1449 1451 1453 1455 1457 1459 1461 1463 1466 1467 1469 1470 1472 1473 1475 1476 1477 1478 1479 1480 1480